This demonstration page uses our WeatherBlox Daily Observations layout. Learn more.

Left ArrowRight Arrow

Hourly Observations for August 11, 2021

Temp ( °F °C ) Dew Point ( °F °C ) Humidity (%) Winds ( mph kmh ) Pressure ( in mb ) Visibility ( mi km ) Precip ( " mm )
12:56 am 00:56 Clear 73 22.8 71 21.7 94 94 S 7 11 29.76 1008 10 16 0.00 0.00
1:56 am 01:56 Clear 73 22.8 71 21.7 94 94 S 3 6 29.75 1008 9 14 0.00 0.00
2:56 am 02:56 Clear 75 23.9 70 21.1 84 84 SSW 9 15 29.74 1007 10 16 0.00 0.00
3:56 am 03:56 Clear 73 22.8 68 20 84 84 SSW 10 17 29.73 1007 10 16 0.00 0.00
4:56 am 04:56 Clear 72 22.2 67 19.4 84 84 SW 9 15 29.73 1007 10 16 0.00 0.00
5:56 am 05:56 Clear 70 21.1 66 18.9 87 87 SSW 6 9 29.73 1007 10 16 0.00 0.00
6:56 am 06:56 Sunny 71 21.7 66 18.9 84 84 W 7 11 29.76 1008 10 16 0.00 0.00
7:56 am 07:56 Sunny 70 21.1 67 19.4 90 90 W 3 6 29.78 1008 10 16 0.00 0.00
8:56 am 08:56 Sunny 73 22.8 69 20.6 87 87 NNW 6 9 29.80 1009 10 16 0.00 0.00
9:56 am 09:56 Sunny 78 25.6 65 18.3 64 64 N 12 19 29.81 1010 10 16 0.00 0.00
10:56 am 10:56 Sunny 82 27.8 61 16.1 49 49 NNE 17 28 29.83 1010 10 16 0.00 0.00
11:56 am 11:56 Sunny 84 28.9 61 16.1 46 46 NNE 14 22 29.85 1011 10 16 0.00 0.00
12:56 pm 12:56 Sunny 86 30 61 16.1 43 43 NNE 15 24 29.85 1011 10 16 0.00 0.00
1:56 pm 13:56 Sunny 88 31.1 60 15.6 39 39 NE 14 22 29.85 1011 10 16 0.00 0.00
2:56 pm 14:56 Sunny 88 31.1 64 17.8 45 45 E 14 22 29.85 1011 10 16 0.00 0.00
3:56 pm 15:56 Sunny 87 30.6 65 18.3 48 48 E 13 20 29.85 1011 10 16 0.00 0.00
4:56 pm 16:56 Sunny 87 30.6 63 17.2 45 45 E 13 20 29.85 1011 10 16 0.00 0.00
5:56 pm 17:56 Sunny 85 29.4 64 17.8 50 50 E 8 13 29.84 1011 10 16 0.00 0.00
6:56 pm 18:56 Sunny 82 27.8 68 20 63 63 ESE 8 13 29.83 1010 10 16 0.00 0.00
7:56 pm 19:56 Sunny 78 25.6 69 20.6 74 74 ENE 3 6 29.84 1011 10 16 0.00 0.00
8:56 pm 20:56 Clear 75 23.9 68 20 79 79 NE 6 9 29.85 1011 10 16 0.00 0.00
9:56 pm 21:56 Clear 70 21.1 67 19.4 90 90 NNE 6 9 29.85 1011 9 14 0.00 0.00
10:56 pm 22:56 Clear 71 21.7 66 18.9 84 84 NNE 3 6 29.85 1011 10 16 0.00 0.00
11:56 pm 23:56 Clear 67 19.4 64 17.8 91 91 E 3 6 29.87 1011 10 16 0.00 0.00

Powered by AerisWeather